| time (UTC) | temp C | wind direction | speed KPH | gust KPH | rain 1hr cm | rain 24hr cm | rain mn cm | humidity % | barometer mb |
| 20260509023050 | 20 | 275 | 3.2 | 9.7 | 0.00 | 0.00 | 0.00 | 62 | 1029.4 |
| 20260509022547 | 20 | 284 | 3.2 | 9.7 | 0.00 | 0.00 | 0.00 | 62 | 1029.3 |
| 20260509022049 | 20 | 261 | 3.2 | 9.7 | 0.00 | 0.00 | 0.00 | 61 | 1029.3 |
| 20260509021543 | 20 | 265 | 3.2 | 8.0 | 0.00 | 0.00 | 0.00 | 61 | 1029.3 |
| 20260509021041 | 20 | 284 | 3.2 | 8.0 | 0.00 | 0.00 | 0.00 | 61 | 1029.4 |
| 20260509020542 | 20 | 290 | 3.2 | 8.0 | 0.00 | 0.00 | 0.00 | 61 | 1029.3 |
| 20260509020041 | 20 | 350 | 3.2 | 9.7 | 0.00 | 0.00 | 0.00 | 61 | 1029.3 |
| 20260509015542 | 20 | 288 | 4.8 | 9.7 | 0.00 | 0.00 | 0.00 | 62 | 1029.4 |
| 20260509015042 | 20 | 278 | 4.8 | 11.3 | 0.00 | 0.00 | 0.00 | 61 | 1029.4 |
| 20260509014537 | 20 | 283 | 3.2 | 11.3 | 0.00 | 0.00 | 0.00 | 60 | 1029.3 |
| 20260509014034 | 20 | 265 | 4.8 | 9.7 | 0.00 | 0.00 | 0.00 | 60 | 1029.3 |
| 20260509013534 | 21 | 261 | 4.8 | 11.3 | 0.00 | 0.00 | 0.00 | 60 | 1029.4 |
| 20260509013035 | 21 | 284 | 4.8 | 11.3 | 0.00 | 0.00 | 0.00 | 59 | 1029.4 |
| 20260509012533 | 21 | 267 | 4.8 | 12.9 | 0.00 | 0.00 | 0.00 | 59 | 1029.5 |
| 20260509012034 | 21 | 0 | 3.2 | 12.9 | 0.00 | 0.00 | 0.00 | 58 | 1029.5 |
| 20260509011531 | 21 | 222 | 4.8 | 12.9 | 0.00 | 0.00 | 0.00 | 59 | 1029.7 |
| 20260509011030 | 21 | 246 | 4.8 | 12.9 | 0.00 | 0.00 | 0.00 | 59 | 1029.8 |
| 20260509010528 | 21 | 316 | 3.2 | 8.0 | 0.00 | 0.00 | 0.00 | 59 | 1029.9 |
| 20260509010028 | 21 | 328 | 1.6 | 11.3 | 0.00 | 0.00 | 0.00 | 58 | 1029.8 |
| 20260509005527 | 21 | 0 | 1.6 | 11.3 | 0.00 | 0.00 | 0.00 | 59 | 1029.6 |
| 20260509005028 | 21 | 288 | 1.6 | 9.7 | 0.00 | 0.00 | 0.00 | 60 | 1029.8 |
| 20260509004521 | 21 | 333 | 1.6 | 9.7 | 0.00 | 0.00 | 0.00 | 61 | 1029.8 |
| 20260509004021 | 21 | 265 | 3.2 | 12.9 | 0.00 | 0.00 | 0.00 | 59 | 1029.9 |
| 20260509003523 | 21 | 282 | 3.2 | 12.9 | 0.00 | 0.00 | 0.00 | 59 | 1029.9 |
| 20260509003020 | 21 | 258 | 3.2 | 9.7 | 0.00 | 0.00 | 0.00 | 58 | 1029.9 |
| 20260509002519 | 21 | 23 | 3.2 | 9.7 | 0.00 | 0.00 | 0.00 | 60 | 1030.1 |
| 20260509002020 | 21 | 250 | 4.8 | 16.1 | 0.00 | 0.00 | 0.00 | 57 | 1030.0 |
| 20260509001519 | 21 | 277 | 4.8 | 16.1 | 0.00 | 0.00 | 0.00 | 57 | 1030.0 |
| 20260509001021 | 21 | 343 | 4.8 | 11.3 | 0.00 | 0.00 | 0.00 | 57 | 1030.0 |
| 20260509000516 | 22 | 303 | 4.8 | 11.3 | 0.00 | 0.00 | 0.00 | 56 | 1029.9 |
| 20260509000016 | 21 | 0 | 4.8 | 14.5 | 0.00 | 0.00 | 0.00 | 57 | 1029.9 |
| 20260508235517 | 21 | 12 | 4.8 | 14.5 | 0.00 | 0.00 | 0.00 | 57 | 1030.0 |
| 20260508235015 | 21 | 275 | 3.2 | 14.5 | 0.00 | 0.00 | 0.00 | 57 | 1029.9 |
| 20260508234515 | 21 | 290 | 3.2 | 14.5 | 0.00 | 0.00 | 0.00 | 56 | 1030.0 |
| 20260508234017 | 21 | 227 | 3.2 | 9.7 | 0.00 | 0.00 | 0.00 | 57 | 1030.0 |
| 20260508233511 | 21 | 232 | 3.2 | 9.7 | 0.00 | 0.00 | 0.00 | 57 | 1030.0 |
| 20260508233011 | 21 | 270 | 4.8 | 9.7 | 0.00 | 0.00 | 0.00 | 56 | 1030.0 |
| 20260508232512 | 21 | 215 | 4.8 | 14.5 | 0.00 | 0.00 | 0.00 | 56 | 1030.0 |
| 20260508232012 | 21 | 229 | 3.2 | 14.5 | 0.00 | 0.00 | 0.00 | 57 | 1030.1 |
| 20260508231511 | 21 | 238 | 3.2 | 9.7 | 0.00 | 0.00 | 0.00 | 57 | 1030.1 |
| 20260508231013 | 21 | 179 | 3.2 | 14.5 | 0.00 | 0.00 | 0.00 | 57 | 1030.2 |
| 20260508230507 | 21 | 119 | 3.2 | 14.5 | 0.00 | 0.00 | 0.00 | 58 | 1030.1 |
| 20260508230008 | 20 | 218 | 3.2 | 12.9 | 0.00 | 0.00 | 0.00 | 58 | 1030.2 |
| 20260508225508 | 20 | 275 | 4.8 | 12.9 | 0.00 | 0.00 | 0.00 | 58 | 1030.1 |
| 20260508225008 | 21 | 232 | 3.2 | 8.0 | 0.00 | 0.00 | 0.00 | 58 | 1030.1 |
| 20260508224508 | 20 | 232 | 3.2 | 8.0 | 0.00 | 0.00 | 0.00 | 56 | 1030.1 |
| 20260508224009 | 20 | 0 | 4.8 | 11.3 | 0.00 | 0.00 | 0.00 | 57 | 1030.1 |
| 20260508223508 | 20 | 258 | 4.8 | 12.9 | 0.00 | 0.00 | 0.00 | 57 | 1030.1 |
| 20260508223007 | 20 | 176 | 4.8 | 12.9 | 0.00 | 0.00 | 0.00 | 57 | 1030.1 |
| 20260508222508 | 20 | 339 | 4.8 | 14.5 | 0.00 | 0.00 | 0.00 | 56 | 1030.1 |
| 20260508222005 | 20 | 229 | 4.8 | 14.5 | 0.00 | 0.00 | 0.00 | 56 | 1030.1 |
| 20260508221505 | 20 | 0 | 4.8 | 11.3 | 0.00 | 0.00 | 0.00 | 57 | 1030.3 |
| 20260508221001 | 20 | 222 | 3.2 | 11.3 | 0.00 | 0.00 | 0.00 | 56 | 1030.2 |
| 20260508220502 | 20 | 234 | 4.8 | 11.3 | 0.00 | 0.00 | 0.00 | 57 | 1030.3 |
| 20260508220001 | 20 | 208 | 3.2 | 11.3 | 0.00 | 0.00 | 0.00 | 58 | 1030.2 |
| 20260508215502 | 19 | 271 | 4.8 | 11.3 | 0.00 | 0.00 | 0.00 | 58 | 1030.2 |
| 20260508214955 | 19 | 275 | 6.4 | 12.9 | 0.00 | 0.00 | 0.00 | 58 | 1030.2 |
| 20260508214455 | 19 | 169 | 6.4 | 16.1 | 0.00 | 0.00 | 0.00 | 59 | 1030.3 |
| 20260508213955 | 19 | 294 | 6.4 | 17.7 | 0.00 | 0.00 | 0.00 | 58 | 1030.2 |
| 20260508213455 | 19 | 303 | 6.4 | 17.7 | 0.00 | 0.00 | 0.00 | 60 | 1030.3 |
| 20260508212955 | 19 | 127 | 6.4 | 16.1 | 0.00 | 0.00 | 0.00 | 58 | 1030.4 |
| 20260508212456 | 19 | 274 | 6.4 | 16.1 | 0.00 | 0.00 | 0.00 | 58 | 1030.3 |
| 20260508211952 | 19 | 306 | 4.8 | 12.9 | 0.00 | 0.00 | 0.00 | 61 | 1030.3 |
| 20260508211451 | 19 | 122 | 4.8 | 11.3 | 0.00 | 0.00 | 0.00 | 60 | 1030.4 |
| 20260508210952 | 19 | 195 | 3.2 | 11.3 | 0.00 | 0.00 | 0.00 | 60 | 1030.4 |
| 20260508210451 | 19 | 282 | 4.8 | 12.9 | 0.00 | 0.00 | 0.00 | 60 | 1030.4 |
| 20260508205949 | 19 | 240 | 4.8 | 14.5 | 0.00 | 0.00 | 0.00 | 61 | 1030.3 |
| 20260508205450 | 19 | 273 | 4.8 | 14.5 | 0.00 | 0.00 | 0.00 | 61 | 1030.4 |
| 20260508204944 | 18 | 209 | 3.2 | 11.3 | 0.00 | 0.00 | 0.00 | 60 | 1030.3 |
| 20260508204443 | 18 | 129 | 3.2 | 12.9 | 0.00 | 0.00 | 0.00 | 60 | 1030.3 |
| 20260508203943 | 18 | 203 | 3.2 | 12.9 | 0.00 | 0.00 | 0.00 | 65 | 1030.3 |
| 20260508203443 | 18 | 128 | 3.2 | 8.0 | 0.00 | 0.00 | 0.00 | 63 | 1030.3 |
| 20260508202943 | 18 | 133 | 3.2 | 9.7 | 0.00 | 0.00 | 0.00 | 62 | 1030.4 |
| 20260508202444 | 18 | 246 | 4.8 | 11.3 | 0.00 | 0.00 | 0.00 | 61 | 1030.4 |
| 20260508201939 | 18 | 156 | 3.2 | 11.3 | 0.00 | 0.00 | 0.00 | 63 | 1030.4 |
| 20260508201440 | 17 | 210 | 3.2 | 8.0 | 0.00 | 0.00 | 0.00 | 65 | 1030.4 |
| 20260508200937 | 17 | 38 | 4.8 | 11.3 | 0.00 | 0.00 | 0.00 | 63 | 1030.4 |
| 20260508200437 | 17 | 271 | 4.8 | 9.7 | 0.00 | 0.00 | 0.00 | 63 | 1030.6 |
| 20260508195938 | 17 | 136 | 4.8 | 14.5 | 0.00 | 0.00 | 0.00 | 64 | 1030.6 |
| 20260508195436 | 17 | 355 | 3.2 | 12.9 | 0.00 | 0.00 | 0.00 | 65 | 1030.5 |
| 20260508194932 | 17 | 69 | 3.2 | 11.3 | 0.00 | 0.00 | 0.00 | 63 | 1030.6 |
| 20260508194431 | 17 | 235 | 4.8 | 11.3 | 0.00 | 0.00 | 0.00 | 63 | 1030.6 |
| 20260508193931 | 17 | 203 | 4.8 | 11.3 | 0.00 | 0.00 | 0.00 | 64 | 1030.7 |
| 20260508193431 | 18 | 212 | 3.2 | 11.3 | 0.00 | 0.00 | 0.00 | 64 | 1030.7 |
| 20260508192931 | 17 | 59 | 3.2 | 12.9 | 0.00 | 0.00 | 0.00 | 66 | 1030.7 |
| 20260508192432 | 17 | 92 | 3.2 | 12.9 | 0.00 | 0.00 | 0.00 | 65 | 1030.7 |
| 20260508191926 | 17 | 178 | 3.2 | 11.3 | 0.00 | 0.00 | 0.00 | 68 | 1030.8 |
| 20260508191425 | 16 | 160 | 4.8 | 12.9 | 0.00 | 0.00 | 0.00 | 66 | 1030.7 |
| 20260508190925 | 16 | 276 | 4.8 | 12.9 | 0.00 | 0.00 | 0.00 | 66 | 1030.8 |
| 20260508190425 | 16 | 292 | 4.8 | 9.7 | 0.00 | 0.00 | 0.00 | 67 | 1030.7 |
| 20260508185925 | 16 | 168 | 3.2 | 12.9 | 0.00 | 0.00 | 0.00 | 65 | 1030.8 |
| 20260508185431 | 16 | 172 | 4.8 | 12.9 | 0.00 | 0.00 | 0.00 | 66 | 1030.8 |
| 20260508184921 | 16 | 102 | 4.8 | 12.9 | 0.00 | 0.00 | 0.00 | 66 | 1030.9 |
| 20260508184421 | 16 | 257 | 4.8 | 12.9 | 0.00 | 0.00 | 0.00 | 68 | 1030.9 |
| 20260508183919 | 16 | 164 | 3.2 | 9.7 | 0.00 | 0.00 | 0.00 | 67 | 1030.8 |
| 20260508183419 | 16 | 154 | 3.2 | 8.0 | 0.00 | 0.00 | 0.00 | 67 | 1030.9 |
| 20260508182919 | 16 | 103 | 4.8 | 16.1 | 0.00 | 0.00 | 0.00 | 68 | 1030.8 |
| 20260508182420 | 16 | 229 | 6.4 | 16.1 | 0.00 | 0.00 | 0.00 | 70 | 1030.8 |
| 20260508181912 | 16 | 207 | 4.8 | 12.9 | 0.00 | 0.00 | 0.00 | 68 | 1030.8 |
| 20260508181412 | 16 | 136 | 4.8 | 12.9 | 0.00 | 0.00 | 0.00 | 68 | 1030.7 |
| 20260508180913 | 16 | 198 | 4.8 | 12.9 | 0.00 | 0.00 | 0.00 | 70 | 1030.7 |
| 20260508180412 | 15 | 191 | 4.8 | 11.3 | 0.00 | 0.00 | 0.00 | 70 | 1030.7 |
| 20260508175913 | 15 | 121 | 4.8 | 22.5 | 0.00 | 0.00 | 0.00 | 72 | 1030.8 |
| 20260508175414 | 15 | 199 | 6.4 | 22.5 | 0.00 | 0.00 | 0.00 | 73 | 1030.7 |
| 20260508174909 | 14 | 193 | 4.8 | 14.5 | 0.00 | 0.00 | 0.00 | 73 | 1030.6 |
| 20260508174409 | 14 | 179 | 3.2 | 11.3 | 0.00 | 0.00 | 0.00 | 73 | 1030.6 |
| 20260508173907 | 14 | 246 | 3.2 | 11.3 | 0.00 | 0.00 | 0.00 | 74 | 1030.6 |
| 20260508173407 | 14 | 171 | 4.8 | 11.3 | 0.00 | 0.00 | 0.00 | 74 | 1030.5 |
| 20260508172907 | 13 | 188 | 4.8 | 16.1 | 0.00 | 0.00 | 0.00 | 74 | 1030.5 |
| 20260508172408 | 13 | 155 | 4.8 | 16.1 | 0.00 | 0.00 | 0.00 | 73 | 1030.5 |
| 20260508171905 | 13 | 265 | 3.2 | 11.3 | 0.00 | 0.00 | 0.00 | 74 | 1030.5 |
| 20260508171405 | 13 | 194 | 3.2 | 9.7 | 0.00 | 0.00 | 0.00 | 76 | 1030.5 |
| 20260508170906 | 13 | 186 | 4.8 | 11.3 | 0.00 | 0.00 | 0.00 | 75 | 1030.4 |
| 20260508170402 | 13 | 194 | 4.8 | 11.3 | 0.00 | 0.00 | 0.00 | 75 | 1030.5 |
| 20260508165901 | 13 | 238 | 4.8 | 12.9 | 0.00 | 0.00 | 0.00 | 77 | 1030.5 |
| 20260508165401 | 13 | 178 | 4.8 | 12.9 | 0.00 | 0.00 | 0.00 | 77 | 1030.4 |
| 20260508164856 | 13 | 223 | 4.8 | 12.9 | 0.00 | 0.00 | 0.00 | 77 | 1030.3 |
| 20260508164355 | 13 | 171 | 3.2 | 12.9 | 0.00 | 0.00 | 0.00 | 79 | 1030.3 |
| 20260508163854 | 12 | 171 | 3.2 | 11.3 | 0.00 | 0.00 | 0.00 | 79 | 1030.2 |
| 20260508163354 | 12 | 259 | 3.2 | 11.3 | 0.00 | 0.00 | 0.00 | 79 | 1030.2 |
| 20260508162855 | 12 | 167 | 3.2 | 11.3 | 0.00 | 0.00 | 0.00 | 79 | 1030.2 |
| 20260508162355 | 12 | 173 | 3.2 | 8.0 | 0.00 | 0.00 | 0.00 | 80 | 1030.0 |
| 20260508161850 | 12 | 148 | 3.2 | 8.0 | 0.00 | 0.00 | 0.00 | 81 | 1029.9 |
| 20260508161346 | 12 | 143 | 4.8 | 11.3 | 0.00 | 0.00 | 0.00 | 81 | 1030.0 |
| 20260508160846 | 12 | 145 | 4.8 | 11.3 | 0.00 | 0.00 | 0.00 | 81 | 1029.8 |
| 20260508160348 | 12 | 147 | 4.8 | 14.5 | 0.00 | 0.00 | 0.00 | 82 | 1029.7 |
| 20260508155847 | 11 | 149 | 4.8 | 14.5 | 0.00 | 0.00 | 0.00 | 82 | 1029.5 |
| 20260508155347 | 11 | 175 | 4.8 | 11.3 | 0.00 | 0.00 | 0.00 | 83 | 1030.0 |
| 20260508154842 | 11 | 198 | 4.8 | 11.3 | 0.00 | 0.00 | 0.00 | 83 | 1030.1 |
| 20260508154342 | 11 | 224 | 4.8 | 19.3 | 0.00 | 0.00 | 0.00 | 83 | 1030.0 |
| 20260508153849 | 11 | 185 | 4.8 | 19.3 | 0.00 | 0.00 | 0.00 | 84 | 1030.1 |
| 20260508153342 | 11 | 115 | 4.8 | 11.3 | 0.00 | 0.00 | 0.00 | 84 | 1029.7 |
| 20260508152840 | 11 | 138 | 3.2 | 11.3 | 0.00 | 0.00 | 0.00 | 85 | 1029.9 |
| 20260508152341 | 11 | 201 | 4.8 | 16.1 | 0.00 | 0.00 | 0.00 | 86 | 1029.9 |
| 20260508151836 | 11 | 111 | 4.8 | 16.1 | 0.00 | 0.00 | 0.00 | 86 | 1029.8 |
| 20260508151337 | 10 | 139 | 3.2 | 11.3 | 0.00 | 0.00 | 0.00 | 85 | 1029.7 |
| 20260508150838 | 10 | 149 | 3.2 | 11.3 | 0.00 | 0.00 | 0.00 | 85 | 1029.5 |
| 20260508150337 | 10 | 134 | 3.2 | 9.7 | 0.00 | 0.00 | 0.00 | 85 | 1029.8 |
| 20260508145835 | 10 | 190 | 1.6 | 9.7 | 0.00 | 0.00 | 0.00 | 86 | 1029.9 |
| 20260508145336 | 10 | 157 | 1.6 | 8.0 | 0.00 | 0.00 | 0.00 | 86 | 1029.8 |
| 20260508144829 | 10 | 109 | 3.2 | 8.0 | 0.00 | 0.00 | 0.00 | 86 | 1029.9 |
| 20260508144328 | 10 | 126 | 3.2 | 12.9 | 0.00 | 0.00 | 0.00 | 86 | 1029.8 |
| 20260508143825 | 10 | 105 | 3.2 | 12.9 | 0.00 | 0.00 | 0.00 | 86 | 1029.7 |
| 20260508143331 | 10 | 190 | 1.6 | 9.7 | 0.00 | 0.00 | 0.00 | 86 | 1029.9 |
| 20260508142826 | 10 | 106 | 3.2 | 9.7 | 0.00 | 0.00 | 0.00 | 86 | 1029.8 |
| 20260508142325 | 10 | 134 | 3.2 | 8.0 | 0.00 | 0.00 | 0.00 | 86 | 1029.8 |
| 20260508141825 | 10 | 184 | 1.6 | 8.0 | 0.00 | 0.00 | 0.00 | 87 | 1029.9 |
| 20260508141325 | 10 | 147 | 1.6 | 6.4 | 0.00 | 0.00 | 0.00 | 87 | 1029.7 |
| 20260508140824 | 9 | 159 | 1.6 | 6.4 | 0.00 | 0.00 | 0.00 | 88 | 1029.8 |
| 20260508140325 | 9 | 195 | 1.6 | 4.8 | 0.00 | 0.00 | 0.00 | 88 | 1029.8 |
| 20260508135824 | 9 | 158 | 0.0 | 4.8 | 0.00 | 0.00 | 0.00 | 89 | 1029.9 |
| 20260508135323 | 8 | 169 | 0.0 | 4.8 | 0.00 | 0.00 | 0.00 | 89 | 1029.8 |
| 20260508134823 | 8 | 173 | 0.0 | 3.2 | 0.00 | 0.00 | 0.00 | 89 | 1029.7 |
| 20260508134323 | 8 | 172 | 0.0 | 3.2 | 0.00 | 0.00 | 0.00 | 89 | 1029.6 |
| 20260508133818 | 8 | 173 | 0.0 | 1.6 | 0.00 | 0.00 | 0.00 | 89 | 1029.5 |
| 20260508133319 | 8 | 173 | 0.0 | 3.2 | 0.00 | 0.00 | 0.00 | 89 | 1029.4 |
| 20260508132820 | 8 | 173 | 1.6 | 4.8 | 0.00 | 0.00 | 0.00 | 89 | 1029.3 |
| 20260508132318 | 8 | 173 | 1.6 | 4.8 | 0.00 | 0.00 | 0.00 | 89 | 1029.3 |
| 20260508131819 | 8 | 175 | 1.6 | 4.8 | 0.00 | 0.00 | 0.00 | 89 | 1029.2 |
| 20260508131320 | 8 | 175 | 0.0 | 4.8 | 0.00 | 0.00 | 0.00 | 89 | 1029.1 |
| 20260508130814 | 8 | 187 | 0.0 | 3.2 | 0.00 | 0.00 | 0.00 | 89 | 1029.2 |
| 20260508130315 | 8 | 188 | 0.0 | 3.2 | 0.00 | 0.00 | 0.00 | 89 | 1029.1 |
| 20260508125814 | 8 | 188 | 1.6 | 4.8 | 0.00 | 0.00 | 0.00 | 88 | 1028.9 |
| 20260508125315 | 8 | 188 | 1.6 | 4.8 | 0.00 | 0.00 | 0.00 | 88 | 1028.8 |
| 20260508124815 | 8 | 183 | 0.0 | 3.2 | 0.00 | 0.00 | 0.00 | 88 | 1028.7 |
| 20260508124316 | 8 | 174 | 0.0 | 3.2 | 0.00 | 0.00 | 0.00 | 88 | 1028.7 |
| 20260508123814 | 8 | 169 | 0.0 | 1.6 | 0.00 | 0.00 | 0.00 | 87 | 1028.4 |
| 20260508123315 | 8 | 169 | 0.0 | 1.6 | 0.00 | 0.00 | 0.00 | 87 | 1028.3 |
| 20260508122814 | 9 | 169 | 0.0 | 1.6 | 0.00 | 0.00 | 0.00 | 87 | 1028.3 |
| 20260508122312 | 9 | 169 | 0.0 | 1.6 | 0.00 | 0.00 | 0.00 | 87 | 1028.1 |
| 20260508121814 | 9 | 169 | 1.6 | 3.2 | 0.00 | 0.00 | 0.00 | 87 | 1028.1 |
| 20260508121310 | 9 | 169 | 1.6 | 8.0 | 0.00 | 0.00 | 0.00 | 87 | 1028.0 |
| 20260508120808 | 9 | 169 | 1.6 | 8.0 | 0.00 | 0.00 | 0.00 | 87 | 1027.9 |
| 20260508120309 | 9 | 209 | 0.0 | 3.2 | 0.00 | 0.00 | 0.00 | 86 | 1028.0 |
| 20260508115804 | 9 | 211 | 0.0 | 4.8 | 0.00 | 0.00 | 0.00 | 86 | 1028.1 |
| 20260508115306 | 9 | 211 | 1.6 | 4.8 | 0.00 | 0.00 | 0.00 | 86 | 1028.0 |
| 20260508114803 | 9 | 211 | 1.6 | 4.8 | 0.00 | 0.00 | 0.00 | 86 | 1028.0 |
| 20260508114303 | 10 | 211 | 1.6 | 6.4 | 0.00 | 0.00 | 0.00 | 85 | 1028.0 |
| 20260508113803 | 10 | 221 | 3.2 | 8.0 | 0.00 | 0.00 | 0.00 | 85 | 1028.0 |
| 20260508113303 | 10 | 213 | 3.2 | 8.0 | 0.00 | 0.00 | 0.00 | 85 | 1027.9 |
| 20260508112802 | 10 | 226 | 3.2 | 12.9 | 0.00 | 0.00 | 0.00 | 85 | 1027.9 |
| 20260508112258 | 10 | 197 | 3.2 | 12.9 | 0.00 | 0.00 | 0.00 | 85 | 1027.7 |
| 20260508111759 | 10 | 254 | 3.2 | 9.7 | 0.00 | 0.00 | 0.00 | 85 | 1027.6 |
| 20260508111258 | 10 | 250 | 4.8 | 11.3 | 0.00 | 0.00 | 0.00 | 84 | 1027.6 |
| 20260508110756 | 10 | 276 | 3.2 | 11.3 | 0.00 | 0.00 | 0.00 | 85 | 1027.4 |
| 20260508110257 | 10 | 229 | 3.2 | 9.7 | 0.00 | 0.00 | 0.00 | 84 | 1027.4 |
| 20260508105754 | 10 | 229 | 3.2 | 8.0 | 0.00 | 0.00 | 0.00 | 84 | 1027.2 |
| 20260508105254 | 10 | 210 | 3.2 | 8.0 | 0.00 | 0.00 | 0.00 | 85 | 1027.2 |
| 20260508104755 | 10 | 201 | 1.6 | 4.8 | 0.00 | 0.00 | 0.00 | 85 | 1027.2 |
| 20260508104252 | 10 | 186 | 0.0 | 4.8 | 0.00 | 0.00 | 0.00 | 85 | 1027.1 |
| 20260508103750 | 10 | 251 | 0.0 | 3.2 | 0.00 | 0.00 | 0.00 | 85 | 1027.2 |
| 20260508103251 | 10 | 254 | 0.0 | 4.8 | 0.00 | 0.00 | 0.00 | 85 | 1027.2 |
| 20260508102744 | 10 | 253 | 1.6 | 6.4 | 0.00 | 0.00 | 0.00 | 85 | 1027.1 |
| 20260508102242 | 10 | 205 | 1.6 | 6.4 | 0.00 | 0.00 | 0.00 | 84 | 1027.2 |
| 20260508101740 | 10 | 227 | 3.2 | 8.0 | 0.00 | 0.00 | 0.00 | 84 | 1027.1 |
| 20260508101238 | 10 | 247 | 3.2 | 8.0 | 0.00 | 0.00 | 0.00 | 84 | 1027.2 |
| 20260508100739 | 10 | 245 | 1.6 | 6.4 | 0.00 | 0.00 | 0.00 | 85 | 1027.0 |
| 20260508100232 | 10 | 238 | 1.6 | 6.4 | 0.00 | 0.00 | 0.00 | 85 | 1026.9 |
| 20260508095733 | 10 | 269 | 3.2 | 11.3 | 0.00 | 0.00 | 0.00 | 85 | 1026.8 |
| 20260508095232 | 10 | 264 | 3.2 | 11.3 | 0.00 | 0.00 | 0.00 | 85 | 1026.7 |
| 20260508094732 | 10 | 229 | 1.6 | 9.7 | 0.00 | 0.00 | 0.00 | 86 | 1026.7 |
| 20260508094232 | 10 | 208 | 1.6 | 4.8 | 0.00 | 0.00 | 0.00 | 86 | 1026.6 |
| 20260508093731 | 9 | 236 | 1.6 | 3.2 | 0.00 | 0.00 | 0.00 | 87 | 1026.4 |
| 20260508093226 | 9 | 236 | 0.0 | 3.2 | 0.00 | 0.00 | 0.00 | 87 | 1026.3 |
| 20260508092726 | 9 | 251 | 0.0 | 3.2 | 0.00 | 0.00 | 0.00 | 87 | 1026.3 |
| 20260508092223 | 9 | 227 | 0.0 | 0.0 | 0.00 | 0.00 | 0.00 | 87 | 1026.2 |
| 20260508091720 | 9 | 227 | 0.0 | 0.0 | 0.00 | 0.00 | 0.00 | 87 | 1026.2 |
| 20260508091220 | 9 | 227 | 0.0 | 3.2 | 0.00 | 0.00 | 0.00 | 87 | 1026.3 |
| 20260508090719 | 9 | 227 | 0.0 | 3.2 | 0.00 | 0.00 | 0.00 | 87 | 1026.3 |
| 20260508090216 | 9 | 227 | 0.0 | 1.6 | 0.00 | 0.00 | 0.00 | 87 | 1026.4 |
| 20260508085717 | 9 | 234 | 0.0 | 0.0 | 0.00 | 0.00 | 0.00 | 87 | 1026.3 |
| 20260508085216 | 9 | 234 | 0.0 | 1.6 | 0.00 | 0.00 | 0.00 | 87 | 1026.3 |
| 20260508084714 | 9 | 235 | 0.0 | 1.6 | 0.00 | 0.00 | 0.00 | 87 | 1026.2 |
| 20260508084215 | 9 | 235 | 0.0 | 0.0 | 0.00 | 0.00 | 0.00 | 87 | 1026.4 |
| 20260508083712 | 9 | 234 | 0.0 | 1.6 | 0.00 | 0.00 | 0.00 | 87 | 1026.4 |
| 20260508083210 | 9 | 235 | 0.0 | 1.6 | 0.00 | 0.00 | 0.00 | 87 | 1026.2 |
| 20260508082707 | 9 | 234 | 0.0 | 0.0 | 0.00 | 0.00 | 0.00 | 86 | 1026.2 |
| 20260508082209 | 9 | 235 | 0.0 | 0.0 | 0.00 | 0.00 | 0.00 | 86 | 1026.1 |
| 20260508081708 | 9 | 235 | 0.0 | 0.0 | 0.00 | 0.00 | 0.00 | 85 | 1026.0 |
| 20260508081209 | 10 | 234 | 0.0 | 0.0 | 0.00 | 0.00 | 0.00 | 86 | 1026.0 |
| 20260508080705 | 10 | 234 | 0.0 | 0.0 | 0.00 | 0.00 | 0.00 | 85 | 1026.0 |
| 20260508080204 | 10 | 234 | 0.0 | 0.0 | 0.00 | 0.00 | 0.00 | 85 | 1026.0 |
| 20260508075702 | 10 | 234 | 0.0 | 0.0 | 0.00 | 0.00 | 0.00 | 85 | 1026.0 |
| 20260508075202 | 10 | 236 | 0.0 | 0.0 | 0.00 | 0.00 | 0.00 | 85 | 1025.9 |
| 20260508074701 | 10 | 235 | 0.0 | 0.0 | 0.00 | 0.00 | 0.00 | 85 | 1026.0 |
| 20260508074203 | 10 | 235 | 0.0 | 0.0 | 0.00 | 0.00 | 0.00 | 85 | 1025.9 |
| 20260508073659 | 10 | 235 | 0.0 | 1.6 | 0.00 | 0.00 | 0.00 | 85 | 1025.9 |
| 20260508073157 | 10 | 235 | 0.0 | 1.6 | 0.00 | 0.00 | 0.00 | 84 | 1025.8 |
| 20260508072659 | 10 | 234 | 0.0 | 1.6 | 0.00 | 0.00 | 0.00 | 84 | 1025.7 |
| 20260508072158 | 10 | 235 | 0.0 | 0.0 | 0.00 | 0.00 | 0.00 | 83 | 1025.7 |
| 20260508071656 | 11 | 235 | 0.0 | 0.0 | 0.00 | 0.00 | 0.00 | 83 | 1025.7 |
| 20260508071157 | 11 | 234 | 0.0 | 0.0 | 0.00 | 0.00 | 0.00 | 83 | 1025.6 |
| 20260508070651 | 11 | 234 | 0.0 | 0.0 | 0.00 | 0.00 | 0.00 | 83 | 1025.6 |
| 20260508070149 | 11 | 235 | 0.0 | 0.0 | 0.00 | 0.00 | 0.00 | 82 | 1025.6 |
| 20260508065650 | 11 | 235 | 0.0 | 0.0 | 0.00 | 0.00 | 0.00 | 81 | 1025.7 |
| 20260508065151 | 11 | 234 | 0.0 | 0.0 | 0.00 | 0.00 | 0.00 | 81 | 1025.7 |
| 20260508064650 | 11 | 234 | 0.0 | 0.0 | 0.00 | 0.00 | 0.00 | 80 | 1025.6 |
| 20260508064149 | 11 | 235 | 0.0 | 0.0 | 0.00 | 0.00 | 0.00 | 80 | 1025.5 |
| 20260508063646 | 11 | 236 | 0.0 | 0.0 | 0.00 | 0.00 | 0.00 | 80 | 1025.5 |
| 20260508063146 | 12 | 235 | 0.0 | 0.0 | 0.00 | 0.00 | 0.00 | 80 | 1025.6 |
| 20260508062646 | 12 | 234 | 0.0 | 0.0 | 0.00 | 0.00 | 0.00 | 79 | 1025.5 |
| 20260508062147 | 12 | 236 | 0.0 | 0.0 | 0.00 | 0.00 | 0.00 | 78 | 1025.5 |
| 20260508061644 | 12 | 234 | 0.0 | 0.0 | 0.00 | 0.00 | 0.00 | 78 | 1025.4 |
| 20260508061144 | 12 | 235 | 0.0 | 0.0 | 0.00 | 0.00 | 0.00 | 78 | 1025.4 |
| 20260508060638 | 12 | 234 | 0.0 | 0.0 | 0.00 | 0.00 | 0.00 | 77 | 1025.5 |
| 20260508060137 | 12 | 234 | 0.0 | 0.0 | 0.00 | 0.00 | 0.00 | 77 | 1025.4 |
| 20260508055638 | 12 | 235 | 0.0 | 0.0 | 0.00 | 0.00 | 0.00 | 77 | 1025.5 |
| 20260508055138 | 12 | 235 | 0.0 | 0.0 | 0.00 | 0.00 | 0.00 | 76 | 1025.5 |
| 20260508054638 | 13 | 235 | 0.0 | 0.0 | 0.00 | 0.00 | 0.00 | 75 | 1025.4 |
| 20260508054138 | 13 | 235 | 0.0 | 0.0 | 0.00 | 0.00 | 0.00 | 74 | 1025.4 |
| 20260508053631 | 13 | 235 | 0.0 | 0.0 | 0.00 | 0.00 | 0.00 | 74 | 1025.4 |
| 20260508053132 | 13 | 234 | 0.0 | 0.0 | 0.00 | 0.00 | 0.00 | 73 | 1025.4 |
| 20260508052632 | 13 | 235 | 0.0 | 0.0 | 0.00 | 0.00 | 0.00 | 73 | 1025.3 |
| 20260508052132 | 14 | 235 | 0.0 | 0.0 | 0.00 | 0.00 | 0.00 | 72 | 1025.3 |
| 20260508051632 | 14 | 234 | 0.0 | 0.0 | 0.00 | 0.00 | 0.00 | 72 | 1025.4 |
| 20260508051133 | 14 | 235 | 0.0 | 0.0 | 0.00 | 0.00 | 0.00 | 71 | 1025.4 |
| 20260508050627 | 14 | 234 | 0.0 | 1.6 | 0.00 | 0.00 | 0.00 | 71 | 1025.5 |
| 20260508050126 | 15 | 234 | 0.0 | 1.6 | 0.00 | 0.00 | 0.00 | 70 | 1025.3 |
| 20260508045626 | 15 | 234 | 0.0 | 1.6 | 0.00 | 0.00 | 0.00 | 70 | 1025.3 |
| 20260508045125 | 15 | 235 | 0.0 | 1.6 | 0.00 | 0.00 | 0.00 | 69 | 1025.3 |
| 20260508044626 | 15 | 234 | 0.0 | 3.2 | 0.00 | 0.00 | 0.00 | 69 | 1025.3 |
| 20260508043626 | 15 | 233 | 0.0 | 4.8 | 0.00 | 0.00 | 0.00 | 69 | 1025.3 |
| 20260508043122 | 15 | 234 | 0.0 | 4.8 | 0.00 | 0.00 | 0.00 | 68 | 1025.2 |
| 20260508042623 | 16 | 234 | 1.6 | 4.8 | 0.00 | 0.00 | 0.00 | 67 | 1025.2 |
| 20260508042122 | 16 | 234 | 1.6 | 4.8 | 0.00 | 0.00 | 0.00 | 67 | 1025.1 |
| 20260508041620 | 16 | 289 | 1.6 | 4.8 | 0.00 | 0.00 | 0.00 | 66 | 1025.0 |
| 20260508041121 | 16 | 296 | 1.6 | 6.4 | 0.00 | 0.00 | 0.00 | 66 | 1025.0 |
| 20260508040616 | 16 | 292 | 3.2 | 6.4 | 0.00 | 0.00 | 0.00 | 65 | 1025.0 |
| 20260508040117 | 16 | 275 | 3.2 | 6.4 | 0.00 | 0.00 | 0.00 | 65 | 1025.0 |
| 20260508035614 | 16 | 276 | 3.2 | 6.4 | 0.00 | 0.00 | 0.00 | 65 | 1024.9 |
| 20260508035114 | 17 | 275 | 3.2 | 6.4 | 0.00 | 0.00 | 0.00 | 65 | 1024.9 |
| 20260508034613 | 17 | 329 | 3.2 | 6.4 | 0.00 | 0.00 | 0.00 | 65 | 1025.0 |
| 20260508034115 | 17 | 329 | 3.2 | 6.4 | 0.00 | 0.00 | 0.00 | 65 | 1024.8 |
| 20260508033608 | 17 | 317 | 3.2 | 11.3 | 0.00 | 0.00 | 0.00 | 65 | 1024.8 |
| 20260508033108 | 17 | 258 | 3.2 | 11.3 | 0.00 | 0.00 | 0.00 | 65 | 1024.7 |
| 20260508032607 | 18 | 285 | 3.2 | 9.7 | 0.00 | 0.00 | 0.00 | 64 | 1024.6 |
| 20260508032107 | 18 | 268 | 3.2 | 11.3 | 0.00 | 0.00 | 0.00 | 64 | 1024.5 |
| 20260508031608 | 18 | 276 | 3.2 | 12.9 | 0.00 | 0.00 | 0.00 | 63 | 1024.4 |
| 20260508031109 | 18 | 291 | 3.2 | 12.9 | 0.00 | 0.00 | 0.00 | 62 | 1024.4 |
| 20260508030606 | 19 | 288 | 4.8 | 8.0 | 0.00 | 0.00 | 0.00 | 62 | 1024.3 |
| 20260508030103 | 20 | 345 | 4.8 | 14.5 | 0.00 | 0.00 | 0.00 | 61 | 1024.6 |
| 20260508025605 | 20 | 284 | 4.8 | 14.5 | 0.00 | 0.00 | 0.00 | 59 | 1024.5 |
| 20260508025103 | 21 | 355 | 3.2 | 14.5 | 0.00 | 0.00 | 0.00 | 57 | 1024.5 |
| 20260508024601 | 22 | 307 | 1.6 | 8.0 | 0.00 | 0.00 | 0.00 | 48 | 1024.4 |
| 20260508024103 | 22 | 109 | 1.6 | 4.8 | 0.00 | 0.00 | 0.00 | 48 | 1024.3 |
| 20260508023556 | 22 | 111 | 1.6 | 3.2 | 0.00 | 0.00 | 0.00 | 48 | 1024.2 |